Regional Weather Roundup
Issued by NWS Charleston, SC

Current Version | Previous Version | Text Only | Print | Product List | Glossary Off
Versions: 1 2 3 4 5 6 7 8 9 10 11 12 13 14 15 16 17 18 19 20 21 22 23 24 25 26 27 28 29 30 31 32 33 34 35 36 37 38 39 40 41 42 43 44 45 46 47 48 49 50
530 ASUS42 KCHS 030828 RWRCHS REGIONAL WEATHER ROUNDUP NATIONAL WEATHER SERVICE CHARLESTON SC 400 AM EDT TUE MAY 03 2016 NOTE: "FAIR" INDICATES FEW OR NO CLOUDS BELOW 12,000 FEET WITH NO SIGNIFICANT WEATHER AND/OR OBSTRUCTIONS TO VISIBILITY. NOT ALL STATIONS ARE QUALITY CONTROLLED. USE DATA WITH CAUTION... ESPECIALLY DEWPOINT OBSERVATIONS. SCZ027-030-031-034>040-042>050-030900- ...SOUTHEAST SOUTH CAROLINA... CITY SKY/WX TMP DP RH WIND PRES REMARKS N CHARLESTON CLOUDY 73 68 84 S9 29.88F WATERFRONT PRK N/A 72 69 90 S8 29.88F MOUNT PLEASANT FAIR 72 70 94 S7 29.89F JOHNS ISLAND CLOUDY 75 73 94 S7 29.88F PINOPOLIS N/A 75 72 88 S7 29.79F MONCKS CORNER PTSUNNY 70 66 88 S7 29.87F SUMMERVILLE PTSUNNY 72 72 100 S3 29.88F BEAUFORT MCAS CLOUDY 74 72 93 S6 29.87F BEAUFORT ARPT CLOUDY 73 72 94 SW7 29.88S HILTON HEAD IS CLOUDY 75 75 100 S9 29.89F WALTERBORO CLOUDY 73 73 100 S6 29.88F ALLENDALE CLOUDY 72 72 100 CALM 29.87S ...SOUTHERN MIDLANDS AND PEE DEE... CITY SKY/WX TMP DP RH WIND PRES REMARKS GEORGETOWN PTSUNNY 72 68 88 SW9 29.90S KINGSTREE CLOUDY 72 68 88 CALM 29.87F ORANGEBURG CLOUDY 70 67 90 W3 29.88F BARNWELL CLOUDY 72 72 100 CALM 29.87F AIKEN LGT RAIN 64 63 94 CALM 29.91S MANNING CLOUDY 72 70 94 SW7 29.87F COLUMBIA CLOUDY 68 65 90 CALM 29.87F SUMTER CLOUDY 66 63 88 SW8 29.86 FLORENCE CLOUDY 68 65 90 NW9 29.90R MYRTLE BEACH CLOUDY 73 66 78 S12 29.90S N MYRTLE BEACH CLOUDY 73 68 84 S14 29.88S $$ GAZ063-065-086>088-099>101-113>116-118-119-134>141-150-030900- ...SOUTHEAST GEORGIA... CITY SKY/WX TMP DP RH WIND PRES REMARKS SAVANNAH ARPT CLOUDY 73 71 93 S7 29.88F HUNTER AAF NOT AVBL FORT STEWART MOCLDY 72 70 94 SW1 29.87F STATESBORO CLOUDY 74 74 100 CALM 29.88F SYLVANIA CLOUDY 72 72 100 CALM 29.89S FOG CLAXTON FAIR 70 70 100 CALM 29.88F FOG ...CSRA...CENTRAL AND FAR SOUTHEAST GEORGIA... CITY SKY/WX TMP DP RH WIND PRES REMARKS THOMSON CLOUDY 69 69 100 CALM 29.92 AUGUSTA-BUSH LGT RAIN 68 67 96 S6 29.86F AUGUSTA-DANIEL LGT RAIN 68 65 90 SE3 29.88F SWAINSBORO FAIR 70 68 94 CALM 29.89F VIDALIA CLOUDY 70 68 94 CALM 29.89S EASTMAN DRIZZLE N/A N/A N/A CALM 29.92S HAZLEHURST FAIR 73 73 100 SW3 29.89S ALMA MOCLDY 70 69 97 CALM 29.90R WAYCROSS CLOUDY 69 68 97 SW6 29.91R JESUP FAIR 72 72 100 CALM 29.90R BAXLEY MOCLDY 72 72 100 S3 29.90R BRUNSWICK PTCLDY 77 72 83 SW6 29.89F SAINT SIMONS MOCLDY 74 73 97 SW8 29.89F $$ SCZ027-028-034-036>038-045-046-048>050-GAZ119-141-030900- ...LAKE AND SUPPLEMENTAL COASTAL OBSERVATIONS... STATION/POSITION TIME TEMP WIND PRES WAVE SWELL AIR SEA DIR/SP/G HT/PER HT/PER/DIR (UTC) (F) (DEG/KT/KT) (MB) (FT/S) (FT/S/D) WINYAH BAY 0700 75 210/ 11 1011.0 LAKE MURRAY 0700 69 200/ 10/ 12 1011.2F ACE BASIN NERRS 0745 75 180/ 1 1012.0F FORT PULASKI 0800 75 75 200/ 11/ 15 1012.0F SAPELO ISLAND 0800 74 200/ 5 1012.0S $$ ANZ835-935-AMZ111-154-330-350-352-354-370-450-454-472-030900- ...C-MAN AND BUOY OBSERVATIONS... STATION/POSITION TIME TEMP WIND PRES WAVE SWELL AIR SEA DIR/SP/G HT/PER HT/PER/DIR (UTC) (F) (DEG/KT/KT) (MB) (FT/S) (FT/S/D) BUOY 41004 0750 76 75 210/ 14/ 16 1011.8F 4/ 6 2/ 9 BUOY 41008 NOT AVBL FOLLY BEACH CMAN 0800 73 170/ 10/ 11 1012.3F CAPERS NEARSHORE 0808 72 73 190/ 17/ 21 1012.2F FRIPP NEARSHORE 0808 75 73 210/ 12/ 16 1011.0F STATION/POSITION TIME TEMP WIND PRES WAVE SWELL AIR SEA DIR/SP/G HT/PER HT/PER/DIR (UTC) (F) (DEG/KT/KT) (MB) (FT/S) (FT/S/D) 5E ST. MARYS GA 0721 73 N/A 4/ 5 FRYING PAN BUOY 0800 75 73 170/ 19/ 25 1011.9F BUOY 41025 0750 75 73 210/ 19/ 23 1011.5F 4/10 2/ 70/10 CAPE LOOKOUT NC 0800 71 200/ 11/ 15 1011.6F BUOY 41002 0750 74 74 160/ 17/ 19 1015.7F 4/10 3/ 40/10 BUOY 41010 0720 78 79 170/ 17/ 21 1015.0F ST AUGUSTINE FL 0800 73 72 220/ 7/ 9 1014.1R $$

USA.gov is the U.S. government's official web portal to all federal, state and local government web resources and services.